Hourly Data Report for September 09, 2019

All times are specified in Local Standard Time (LST). Add 1 hour to adjust for Daylight Saving Time where and when it is observed.

EUREKA CLIMATE
NUNAVUT
Current Station Operator: ECCC - MSC

79°59'21.000" N
85°56'02.000" W
10.00 m
2401199
71613
NEK

Download Data

Hourly Data (September 2019)
Hourly Data Report for September 9, 2019
TIME Temp Definition
°C
Dew Point Definition
°C
Rel Hum Definition
%
Wind Dir Definition
10's deg

Wind Spd Definition
km/h
Visibility Definition
km
Stn Press Definition
kPa
Hmdx Definition


Wind Chill Definition


Weather Definition


00:00 1.1 0.0 92 12 36   100.65     LegendNANA
01:00 1.2 -0.1 91 12 35   100.65     LegendNANA
02:00 1.1 -0.3 90 13 25   100.67     LegendNANA
03:00 1.1 -0.1 92 13 21   100.68     LegendNANA
04:00 1.2 -0.1 91 13 12   100.69     LegendNANA
05:00 1.2 -0.1 91 11 14   100.70     LegendNANA
06:00 1.5 0.4 92 14 15   100.72     LegendNANA
07:00 1.4 0.5 93 13 11   100.72     LegendNANA
08:00 1.3 0.4 94 11 8   100.74     LegendNANA
09:00 1.2 0.6 96 9 6   100.74     LegendNANA
10:00 0.6 0.3 97 8 4   100.73     LegendNANA
11:00 1.2 0.7 97 36 3   100.73     LegendNANA
12:00 1.5 0.8 95 34 3   100.73     LegendNANA
13:00 1.8 1.0 94 30 2   100.73     LegendNANA
14:00 2.2 0.9 91 30 8   100.76     LegendNANA
15:00 1.9 1.0 94 29 16   100.77     LegendNANA
16:00 2.2 0.5 89 32 8   100.79     LegendNANA
17:00 1.4 -0.7 86 35 19   100.80     LegendNANA
18:00 1.8 -1.5 79 35 19   100.80     LegendNANA
19:00 1.4 -1.2 83 9 10   100.83     LegendNANA
20:00 1.3 -1.5 81 2 16   100.82     LegendNANA
21:00 0.8 -2.1 81 3 20   100.84     LegendNANA
22:00 -0.4 -2.1 88 30 24   100.84   -6 LegendNANA
23:00 -0.3 -2.3 86 31 12   100.82   -4 LegendNANA

Notes on Data Quality.

Legend

  • E = Estimated
  • M = Missing
  • NA = Not Available
Date modified: